Simultaneous Nadir Overpasses (SNOs) Predictions

Prediction of SNOs between GOES-15 and TERRA Satellite Orbit:

Table of predicted SNOs for the next 14.0 days since TLE Epoch: 8/13/2022
Index Date Time (GOES-15) GOES-15 Lat,Lon TERRA Lat,Lon Distance(km) Time Diff (sec)
1 08/14/2022 06:46:39 0.15,-128.03 0.35,-127.19 96.01 80
2 08/14/2022 19:05:14 -0.18,-128.10 0.73,-132.35 483.97 80
3 08/16/2022 06:34:24 0.14,-128.04 0.92,-124.23 432.12 80
4 08/16/2022 18:53:00 -0.17,-128.11 0.10,-129.40 147.67 80
5 08/18/2022 18:43:26 -0.17,-128.11 -0.53,-126.45 188.14 80
6 08/19/2022 07:02:10 0.20,-128.04 -0.55,-131.65 410.13 80
7 08/21/2022 06:49:55 0.19,-128.04 0.04,-128.69 75.05 80
8 08/23/2022 06:40:21 0.19,-128.02 0.69,-125.75 259.49 80
9 08/23/2022 18:58:56 -0.21,-128.08 0.38,-130.91 322.14 80
10 08/25/2022 18:49:21 -0.21,-128.06 -0.22,-127.95 12.13 80
